User: anonymous   Login
Location: Oshawa
(43.9000°N, 78.8670°W)
Time: 08:29:46
(UTC-05:00)
Language:

Explorer 11/Cluster Stage 4 - Orbit

View from above orbital plane
View from above orbital plane
View from above satellite
View from above satellite

Ground track
Ground track

The orbit data is extracted from the following two-line orbital elements,

1 00107U 61013A   16035.78147855  .00000978  00000-0  11123-3 0  9994
2 00107  28.7902 180.8299 0552113 283.0983  70.8556 14.07641311740768
Epoch (UTC): 04 February 2016 18:45:19
Eccentricity: 0.0552113
inclination: 28.7902°
perigee height: 467 km
apogee height: 1267 km
right ascension of ascending node: 180.8299°
argument of perigee: 283.0983°
revolutions per day: 14.07641311
mean anomaly at epoch: 70.8556°
orbit number at epoch: 74076

The dashed part of the orbit path shows where the satellite is in the earth's shadow,  

DLR